Flag for United Kingdom Weather past 2 weeks in Ely, England, United Kingdom

Now
45 °F

Sunny.


Feels Like: 39 °F
Forecast: N/A
Wind: 12 mph from Northwest

Location: Mildenhall Royal Air Force Base

Current Time: Jan 26, 2015 at 3:21:34 PM

Latest Report: Jan 26, 2015 at 2:58 PM


Visibility: N/A

Pressure: 30.18 "Hg

Humidity: 73%

Dew point: 37 °F

Location of ElyLocation

Historic Weather in Ely — Graph

°F

Ely temperature yesterday

Maximum temperature yesterday: 46 °F (at 2:58 PM)
Minimum temperature yesterday: 31 °F (at 12:58 AM)
Average temperature yesterday: 40 °F

Past Weeks' High & Low Weather Summary

 TemperatureHumidityPressure
High52 °F (Jan 13, 12:58 AM)100% (Jan 18, 7:01 AM)30.44 "Hg (Jan 18, 7:01 AM)
Low21 °F (Jan 23, 7:58 AM)57% (Jan 15, 3:03 PM)29.06 "Hg (Jan 15, 3:58 AM)
Average38 °F84%29.86 "Hg
* Reported Jan 11 1:58 PM — Jan 26 1:58 PM, Ely, Weather by CustomWeather, © 2014

Note: Actual official high and low records may vary slightly from our data, if they occured in-between our weather recording intervals... More about our weather records

Advertising

Ely weather history for previous 24 hours

 ConditionsComfort  
Time TempWeatherWind HumidityBarometerVisibility
1:58 PM
Jan 26
46 °FPassing clouds.18 mph68%30.17 "HgN/A
12:58 PM48 °FSunny.18 mph63%30.16 "HgN/A
11:58 AM47 °FSunny.16 mph66%30.17 "HgN/A
10:58 AM49 °FPassing clouds.14 mph82%30.16 "HgN/A
9:58 AM49 °FOvercast.13 mph93%30.15 "HgN/A
8:59 AM46 °FCloudy.12 mph100%30.13 "HgN/A
8:58 AM47 °FDrizzle. Cloudy.12 mph94%30.14 "HgN/A
8:03 AM48 °FMostly cloudy.10 mph94%30.11 "HgN/A
7:58 AM47 °FMostly cloudy.10 mph93%30.12 "HgN/A
6:58 AM47 °FMostly cloudy.12 mph94%30.11 "HgN/A
5:58 AM47 °FLight rain. Overcast.9 mph91%30.11 "HgN/A
5:03 AM46 °FPassing clouds.10 mph93%30.11 "HgN/A
4:58 AM47 °FPassing clouds.10 mph92%30.12 "HgN/A
4:03 AM46 °FMostly cloudy.12 mph93%30.13 "HgN/A
2:58 AM46 °FPassing clouds.8 mph93%30.16 "HgN/A
1:58 AM46 °FOvercast.8 mph92%30.18 "HgN/A
1:03 AM46 °FOvercast.10 mph93%30.18 "HgN/A
11:58 PM
Jan 25
46 °FOvercast.8 mph92%30.22 "HgN/A
10:58 PM45 °FOvercast.8 mph91%30.23 "HgN/A
9:58 PM44 °FOvercast.7 mph91%30.25 "HgN/A
8:58 PM43 °FOvercast.10 mph91%30.26 "HgN/A
7:58 PM43 °FMostly cloudy.8 mph90%30.28 "HgN/A
6:58 PM43 °FMostly cloudy.13 mph87%30.28 "HgN/A
5:58 PM42 °FPassing clouds.10 mph87%30.29 "HgN/A
4:58 PM40 °FClear.8 mph88%30.31 "HgN/A
3:58 PM44 °FSunny.7 mph80%30.31 "HgN/A
Weather by CustomWeather, © 2014

See weather overviewHow to use our weather pages